Regional Weather Roundup
Issued by NWS Mt. Holly, NJ

Home | Current Version | Previous Version | Text Only | Print | Product List | Glossary On
Versions: 1 2 3 4 5 6 7 8 9 10 11 12 13 14 15 16 17 18 19 20 21 22 23 24 25 26 27 28 29 30 31 32 33 34 35 36 37 38 39 40 41 42 43 44 45 46 47 48 49 50
000
ASUS41 KPHI 241612
RWRPHI

REGIONAL WEATHER ROUNDUP
NATIONAL WEATHER SERVICE MOUNT HOLLY NJ
1200 PM EDT SUN JUL 24 2016

NOTE:  "FAIR" INDICATES FEW OR NO CLOUDS BELOW 12,000 FEET WITH NO
SIGNIFICANT WEATHER AND/OR OBSTRUCTIONS TO VISIBILITY.

 * = STATION DOES NOT REPORT PRECIPITATION (E.G. RAIN, SNOW, ETC.)
        OR FOG.

NJZ015>026-241700-
SOUTHERN NEW JERSEY

CITY           SKY/WX    TMP DP  RH WIND       PRES   REMARKS
POMONA         SUNNY     86  63  45 SE8       30.00R
WILDWOOD*      SUNNY     86  66  51 SE10      30.01R
MILLVILLE      MOSUNNY   89  64  43 SE5       30.00R HX  90
WRIGHTSTOWN    SUNNY     89  64  43 VRB6      29.96S HX  90
MOUNT HOLLY    SUNNY     88  62  41 CALM      29.99S
TRENTON        SUNNY     88  63  43 VRB3      29.99S

$$
NJZ001>014-241700-
NORTHERN NEW JERSEY

CITY           SKY/WX    TMP DP  RH WIND       PRES   REMARKS
SUSSEX         MOSUNNY   88  59  37 VRB6      30.00S
ANDOVER*         N/A     85  63  47 CALM      30.01S
MORRISTOWN     MOSUNNY   86  63  45 NW5       29.99S
NEWARK         PTSUNNY   90  58  33 NW9       29.97F
TETERBORO      MOSUNNY   89  58  34 VRB7      29.96F
CALDWELL       MOSUNNY   87  61  41 VRB3      29.98F
SOMERVILLE     MOSUNNY   89  62  40 CALM      29.97S
ALLAIRE*       MOSUNNY   88  64  44 NE8       30.00S
TOMS RIVER*    MOSUNNY   91  64  40 VRB7      29.99F HX  93

$$
PAZ043-044-047-054-055-060>062-066>071-241700-
EASTERN PENNSYLVANIA

CITY           SKY/WX    TMP DP  RH WIND       PRES   REMARKS
PHILADELPHIA   PTSUNNY   90  61  37 SE7       29.99S HX  90
NORTH PHILA    SUNNY     90  60  36 VRB6      30.01R
BLUE BELL*     SUNNY     86  61  42 CALM      29.99S
DOYLESTOWN     SUNNY     86  59  39 CALM      29.99F
QUAKERTOWN*    SUNNY     90  59  35 N3        30.01S
PERKASIE*      FAIR      90  59  35 NW5       30.02S
POTTSTOWN      SUNNY     90  58  33 E3        30.01S
LANCASTER      PTSUNNY   86  62  44 VRB3      30.02R
COATESVILLE    MOSUNNY   86  63  45 CALM      30.04R
READING        MOSUNNY   90  58  33 S5        29.99S
ALLENTOWN      SUNNY     89  59  36 CALM      30.00S
MOUNT POCONO   SUNNY     83  55  38 N9        30.07S
HAZLETON       SUNNY     82  59  44 NW5       30.10S
LEHIGHTON      FAIR      86  63  45 S5        30.02S
WILKES BARRE   SUNNY     87  59  38 VRB5      30.02F

$$
DEZALL-MDZ008-012-015-019-020-241700-
DELAWARE AND EASTERN MARYLAND

CITY           SKY/WX    TMP DP  RH WIND       PRES   REMARKS
WILMINGTON     MOSUNNY   88  63  43 VRB3      30.00R
DOVER          MOSUNNY   86  71  59 E6        30.00R HX  91
GEORGETOWN     MOSUNNY   90  64  42 VRB5      30.00R HX  91
EASTON         CLOUDY    91  72  52 SE5       30.04R HX  98
PATUXENT       PTSUNNY   89  67  47 VRB5      30.00R HX  92
OCEAN CITY     SUNNY     83  71  67 NE8       30.00R
WALLOPS ISLAND FAIR      87  75  67 E7        30.00R HX  96
CAMBRIDGE      MOSUNNY   90  64  43 E5        29.99R HX  91
SALISBURY      MOSUNNY   91  67  44 E5        29.99R HX  94

$$
PAZ001-021-NYZ056-072-MDZ011-DCZ001-241700-
OTHER NEARBY LOCATIONS

CITY           SKY/WX    TMP DP  RH WIND       PRES   REMARKS
HARRISBURG     CLOUDY    88  65  46 S3        30.01R HX  90
STATE COLLEGE  SUNNY     84  61  45 CALM      30.06R
WILLIAMSPORT   MOSUNNY   87  61  41 CALM      30.00F
BINGHAMTON     SUNNY     82  58  43 VRB6      30.06S
NEW YORK CITY  SUNNY     88  60  38 CALM      30.00F
BALTIMORE      PTSUNNY   90  60  36 VRB5      30.01R
WASHINGTON DC  PTSUNNY   92  66  42 VRB7      30.01R HX  94

$$



USA.gov is the U.S. government's official web portal to all federal, state and local government web resources and services.